カタログに戻る

SL-12 DEB

LostHEO
NORAD 28583·DEBRIS·🇷🇺 Russia

打ち上げ Jul 30, 1992 から Baikonur Cosmodrome

Loading…

次のパス (今後24時間)

TLE

古いSource: Space-Track

元期: Feb 3, 2021, 09:23 UTC

1 28583U 92047S   21034.39131492 -.00000016  00000-0  00000+0 0  9997
2 28583  63.6353  37.0500 3749133 146.0175 244.9970  5.88834793280047

AllMySatでSL-12 DEBをリアルタイム追跡

Download on the App Store